DW4847 Weather Reports


Display with metric or nautical units.
time (UTC)temp
F
wind
direction
speed
MPH
gust
MPH
rain 1hr
in
rain 24hr
in
rain mn
in
humidity
%
barometer
mb
20260508142024 47 355 2.0 7.0 0.00 0.00 0.00 59 1009.5
20260508141538 47 211 3.0 9.0 0.00 0.00 0.00 59 1009.6
20260508141023 47 222 1.0 9.0 0.00 0.00 0.00 62 1009.7
20260508140557 47 225 1.0 3.0 0.00 0.00 0.00 62 1009.7
20260508140030 47 217 1.0 3.0 0.00 0.00 0.00 61 1009.7
20260508135604 47 263 1.0 4.0 0.00 0.00 0.00 61 1009.7
20260508135030 46 230 2.0 5.0 0.00 0.00 0.00 63 1009.8
20260508134524 46 348 2.0 8.0 0.00 0.00 0.00 62 1009.8
20260508134031 46 225 3.0 9.0 0.00 0.00 0.00 62 1010.0
20260508133525 46 270 2.0 6.0 0.00 0.00 0.00 62 1010.0
20260508133056 46 315 2.0 6.0 0.00 0.00 0.00 63 1009.9
20260508132550 46 316 2.0 6.0 0.00 0.00 0.00 63 1010.0
20260508132034 45 336 2.0 6.0 0.00 0.00 0.00 65 1010.0
20260508131525 45 219 2.0 4.0 0.00 0.00 0.00 66 1010.0
20260508131100 44 316 2.0 6.0 0.00 0.00 0.00 67 1010.3
20260508130525 43 332 4.0 6.0 0.00 0.00 0.00 66 1010.4
20260508130035 43 221 2.0 7.0 0.00 0.00 0.00 66 1010.4
20260508125548 43 225 3.0 7.0 0.00 0.00 0.00 66 1010.5
20260508125031 43 348 3.0 6.0 0.00 0.00 0.00 66 1010.6
20260508124524 44 304 2.0 5.0 0.00 0.00 0.00 65 1010.5
20260508124057 44 223 2.0 6.0 0.00 0.00 0.00 64 1010.4
20260508123540 44 287 3.0 6.0 0.00 0.00 0.00 64 1010.3
20260508123034 44 302 2.0 5.0 0.00 0.00 0.00 64 1010.4
20260508122548 44 202 1.0 5.0 0.00 0.00 0.00 65 1010.3
20260508122033 43 221 1.0 8.0 0.00 0.00 0.00 64 1010.3
20260508121527 43 226 3.0 8.0 0.00 0.00 0.00 64 1010.2
20260508121041 43 336 2.0 9.0 0.00 0.00 0.00 65 1010.2
20260508120525 43 327 3.0 9.0 0.00 0.00 0.00 64 1010.1
20260508120034 42 264 2.0 5.0 0.00 0.00 0.00 65 1010.2
20260508115549 42 330 2.0 6.0 0.00 0.00 0.00 64 1010.2
20260508115032 41 289 1.0 6.0 0.00 0.00 0.00 67 1010.4
20260508114543 41 211 0.0 6.0 0.00 0.00 0.00 66 1010.3
20260508114059 40 313 1.0 6.0 0.00 0.00 0.00 67 1010.4
20260508113544 40 286 2.0 6.0 0.00 0.00 0.00 69 1010.2
20260508113107 39 333 2.0 4.0 0.00 0.00 0.00 72 1010.2
20260508112530 38 346 0.0 5.0 0.00 0.00 0.00 75 1010.3
20260508112044 37 315 1.0 3.0 0.00 0.00 0.00 78 1010.3
20260508111528 36 288 1.0 3.0 0.00 0.00 0.00 81 1010.2
20260508111039 36 253 0.0 1.0 0.00 0.00 0.00 80 1010.1
20260508110525 35 250 0.0 0.0 0.00 0.00 0.00 81 1010.0
20260508110110 34 249 0.0 0.0 0.00 0.00 0.00 82 1010.1
20260508105554 34 248 0.0 0.0 0.00 0.00 0.00 82 1010.0
20260508105028 34 247 0.0 0.0 0.00 0.00 0.00 83 1010.0
20260508104545 33 244 0.0 0.0 0.00 0.00 0.00 83 1009.9
20260508104029 33 261 0.0 0.0 0.00 0.00 0.00 82 1009.9
20260508103540 33 260 0.0 0.0 0.00 0.00 0.00 82 1009.7
20260508103024 33 260 0.0 0.0 0.00 0.00 0.00 82 1009.7
20260508102538 33 261 0.0 0.0 0.00 0.00 0.00 81 1009.7
20260508102023 33 261 0.0 0.0 0.00 0.00 0.00 81 1009.6
20260508101536 33 260 0.0 0.0 0.00 0.00 0.00 80 1009.6
20260508101023 33 261 0.0 0.0 0.00 0.00 0.00 80 1009.4
20260508100536 34 261 0.0 0.0 0.00 0.00 0.00 79 1009.5
20260508100029 34 261 0.0 0.0 0.00 0.00 0.00 79 1009.4
20260508095534 34 261 0.0 0.0 0.00 0.00 0.00 79 1009.3
20260508095029 34 261 0.0 0.0 0.00 0.00 0.00 78 1009.2
20260508094543 35 261 0.0 0.0 0.00 0.00 0.00 77 1009.2
20260508094028 35 261 0.0 0.0 0.00 0.00 0.00 77 1009.2
20260508093541 35 260 0.0 0.0 0.00 0.00 0.00 76 1009.1
20260508093028 35 260 0.0 0.0 0.00 0.00 0.00 77 1009.0
20260508092523 36 260 0.0 0.0 0.00 0.00 0.00 77 1008.9
20260508092029 36 260 0.0 0.0 0.00 0.00 0.00 77 1008.9
20260508091523 36 260 0.0 0.0 0.00 0.00 0.00 76 1008.9
20260508091036 37 260 0.0 0.0 0.00 0.00 0.00 76 1008.9
20260508090539 37 260 0.0 0.0 0.00 0.00 0.00 75 1008.8
20260508090034 37 260 0.0 0.0 0.00 0.00 0.00 76 1008.7
20260508085549 37 260 0.0 0.0 0.00 0.00 0.00 74 1008.7
20260508085104 37 260 0.0 0.0 0.00 0.00 0.00 73 1008.7
20260508084528 37 260 0.0 0.0 0.00 0.00 0.00 75 1008.7
20260508084042 37 260 0.0 0.0 0.00 0.00 0.00 74 1008.7
20260508083529 38 260 0.0 0.0 0.00 0.00 0.00 73 1008.7
20260508083023 38 260 0.0 2.0 0.00 0.00 0.00 75 1008.7
20260508082526 38 260 0.0 2.0 0.00 0.00 0.00 75 1008.7
20260508082041 38 258 0.0 2.0 0.00 0.00 0.00 78 1008.8
20260508081527 38 258 1.0 2.0 0.00 0.00 0.00 77 1008.7
20260508081041 37 259 0.0 0.0 0.00 0.00 0.00 77 1008.7
20260508080535 37 259 0.0 2.0 0.00 0.00 0.00 75 1008.8
20260508080035 37 259 0.0 2.0 0.00 0.00 0.00 78 1008.8
20260508075528 37 258 0.0 0.0 0.00 0.00 0.00 78 1008.7
20260508075041 37 258 0.0 2.0 0.00 0.00 0.00 77 1008.7
20260508074526 36 258 0.0 2.0 0.00 0.00 0.00 76 1008.6
20260508074039 36 221 0.0 1.0 0.00 0.00 0.00 78 1008.6
20260508073554 35 221 0.0 1.0 0.00 0.00 0.00 83 1008.6
20260508073036 35 221 0.0 0.0 0.00 0.00 0.00 83 1008.7
20260508072529 35 221 0.0 1.0 0.00 0.00 0.00 83 1008.6
20260508072044 34 221 0.0 2.0 0.00 0.00 0.00 83 1008.6
20260508071530 34 221 0.0 2.0 0.00 0.00 0.00 83 1008.5
20260508071023 34 221 0.0 2.0 0.00 0.00 0.00 84 1008.5
20260508070529 33 220 0.0 1.0 0.00 0.00 0.00 85 1008.6
20260508070024 33 220 0.0 0.0 0.00 0.00 0.00 85 1008.5
20260508065540 33 220 0.0 0.0 0.00 0.01 0.00 86 1008.5
20260508065025 33 220 0.0 0.0 0.00 0.01 0.00 86 1008.6
20260508064539 33 220 0.0 0.0 0.00 0.01 0.00 86 1008.6
20260508064024 32 220 0.0 0.0 0.00 0.01 0.00 85 1008.6
20260508063539 32 220 0.0 0.0 0.00 0.01 0.00 85 1008.6
20260508063026 32 220 0.0 0.0 0.00 0.01 0.00 85 1008.5
20260508062536 32 220 0.0 0.0 0.00 0.01 0.00 85 1008.3
20260508062049 32 220 0.0 0.0 0.00 0.01 0.00 84 1008.2
20260508061533 33 220 0.0 0.0 0.00 0.01 0.00 84 1008.0
20260508061048 33 220 0.0 0.0 0.00 0.01 0.00 84 1008.0
20260508060543 33 220 0.0 0.0 0.00 0.01 0.00 84 1008.1
20260508060030 33 220 0.0 0.0 0.00 0.01 0.00 84 1008.1
20260508055524 33 220 0.0 0.0 0.00 0.01 0.00 84 1008.2
20260508055031 33 220 0.0 0.0 0.00 0.01 0.00 84 1008.2
20260508054546 33 220 0.0 0.0 0.00 0.01 0.00 84 1008.2
20260508054100 33 220 0.0 0.0 0.00 0.01 0.00 84 1008.0
20260508053555 33 220 0.0 0.0 0.00 0.01 0.00 84 1008.1
20260508053029 33 220 0.0 0.0 0.00 0.01 0.00 84 1008.1
20260508052536 33 220 0.0 0.0 0.00 0.01 0.00 84 1008.0
20260508052050 33 220 0.0 0.0 0.00 0.01 0.00 84 1007.9
20260508051544 33 220 0.0 0.0 0.00 0.01 0.00 83 1008.0
20260508051038 33 220 0.0 0.0 0.00 0.01 0.00 83 1008.1
20260508050607 33 220 0.0 0.0 0.00 0.01 0.00 83 1008.1
20260508050030 33 220 0.0 0.0 0.00 0.01 0.00 83 1008.2
20260508045521 33 220 0.0 0.0 0.00 0.01 0.00 83 1008.2
20260508045054 33 220 0.0 0.0 0.00 0.01 0.00 83 1008.3
20260508044546 33 220 0.0 0.0 0.00 0.01 0.00 83 1008.3
20260508044029 33 220 0.0 0.0 0.00 0.01 0.00 83 1008.4
20260508043543 33 220 0.0 0.0 0.00 0.01 0.00 83 1008.4
20260508043028 34 220 0.0 1.0 0.00 0.01 0.00 83 1008.4
20260508042522 34 220 0.0 1.0 0.00 0.01 0.00 83 1008.3
20260508042028 34 219 0.0 0.0 0.00 0.01 0.00 83 1008.3
20260508041522 34 219 0.0 0.0 0.00 0.01 0.00 83 1008.2
20260508041037 34 219 0.0 0.0 0.00 0.01 0.00 82 1008.2
20260508040523 34 219 0.0 0.0 0.00 0.01 0.00 82 1008.3
20260508040052 34 219 0.0 0.0 0.00 0.01 0.00 82 1008.4
20260508035526 34 220 0.0 0.0 0.00 0.01 0.01 82 1008.3
20260508035033 35 220 0.0 0.0 0.00 0.01 0.01 82 1008.4
20260508034527 35 220 0.0 0.0 0.00 0.01 0.01 81 1008.5
20260508034042 35 220 0.0 0.0 0.00 0.01 0.01 80 1008.5
20260508033548 35 220 0.0 0.0 0.00 0.01 0.01 80 1008.5
20260508033023 35 220 0.0 0.0 0.00 0.01 0.01 79 1008.5
20260508032532 35 220 0.0 0.0 0.00 0.01 0.01 80 1008.5
20260508032038 35 220 0.0 0.0 0.00 0.01 0.01 79 1008.6
20260508031534 35 220 0.0 0.0 0.00 0.01 0.01 79 1008.5
20260508031049 35 220 0.0 0.0 0.00 0.01 0.01 78 1008.6
20260508030535 36 219 0.0 0.0 0.00 0.01 0.01 78 1008.5
20260508030022 36 220 0.0 0.0 0.00 0.01 0.01 77 1008.4
20260508025535 36 220 0.0 0.0 0.00 0.01 0.01 78 1008.5
20260508025031 36 220 0.0 0.0 0.00 0.01 0.01 77 1008.4
20260508024535 36 219 0.0 0.0 0.00 0.01 0.01 77 1008.6
20260508024028 36 220 0.0 0.0 0.00 0.01 0.01 76 1008.6
20260508023544 37 220 0.0 0.0 0.00 0.01 0.01 76 1008.6
20260508023029 37 220 0.0 0.0 0.00 0.01 0.01 75 1008.6
20260508022523 37 220 0.0 0.0 0.00 0.01 0.01 74 1008.6
20260508022056 37 220 0.0 0.0 0.00 0.01 0.01 74 1008.6
20260508021521 38 220 0.0 0.0 0.00 0.01 0.01 74 1008.6
20260508021036 38 220 0.0 0.0 0.00 0.01 0.01 74 1008.6
20260508020523 38 220 0.0 0.0 0.00 0.01 0.01 73 1008.6
20260508020032 38 220 0.0 0.0 0.00 0.01 0.01 73 1008.5
20260508015545 39 220 0.0 0.0 0.00 0.04 0.01 71 1008.5
20260508015038 39 220 0.0 0.0 0.00 0.04 0.01 70 1008.5
20260508014523 39 219 0.0 0.0 0.00 0.04 0.01 70 1008.5
20260508014052 40 219 0.0 0.0 0.00 0.04 0.01 69 1008.4
20260508013525 40 219 0.0 0.0 0.00 0.04 0.01 69 1008.3
20260508013033 40 219 0.0 0.0 0.00 0.04 0.01 68 1008.5
20260508012530 41 219 0.0 0.0 0.00 0.04 0.01 68 1008.4
20260508012046 41 219 0.0 0.0 0.00 0.04 0.01 67 1008.4
20260508011529 42 219 0.0 0.0 0.00 0.04 0.01 66 1008.3
20260508011042 42 219 0.0 0.0 0.00 0.04 0.01 66 1008.2
20260508010557 42 219 0.0 0.0 0.00 0.04 0.01 65 1008.2
20260508010041 43 219 0.0 0.0 0.00 0.04 0.01 63 1008.1
20260508005537 43 219 0.0 0.0 0.00 0.05 0.01 64 1008.0
20260508005050 43 222 0.0 0.0 0.00 0.05 0.01 63 1007.9
20260508004535 44 222 0.0 0.0 0.00 0.05 0.01 60 1007.7
20260508004050 44 222 0.0 0.0 0.00 0.05 0.01 61 1007.7
20260508003542 45 222 0.0 0.0 0.00 0.05 0.01 58 1007.7
20260508003028 45 222 0.0 0.0 0.00 0.05 0.01 58 1007.6
20260508002544 46 222 0.0 1.0 0.00 0.05 0.01 59 1007.7
20260508002029 46 222 0.0 1.0 0.00 0.05 0.01 56 1007.6
20260508001524 47 222 0.0 0.0 0.00 0.05 0.01 53 1007.6
20260508001031 47 222 0.0 0.0 0.00 0.05 0.01 49 1007.6
20260508000527 47 222 0.0 1.0 0.00 0.05 0.01 51 1007.6
20260508000041 48 317 0.0 2.0 0.00 0.05 0.01 49 1007.5
20260507235529 48 317 1.0 2.0 0.00 0.07 0.01 49 1007.4
20260507235042 48 309 0.0 3.0 0.00 0.07 0.01 47 1007.4
20260507234528 48 302 0.0 6.0 0.00 0.07 0.01 48 1007.4
20260507234057 48 321 2.0 7.0 0.00 0.07 0.01 46 1007.4
20260507233529 49 238 1.0 9.0 0.00 0.07 0.01 47 1007.4
20260507233035 49 273 2.0 9.0 0.00 0.07 0.01 47 1007.3
20260507232551 49 313 3.0 8.0 0.00 0.07 0.01 46 1007.2
20260507232024 49 318 0.0 5.0 0.00 0.07 0.01 49 1007.1
20260507231529 49 321 1.0 5.0 0.00 0.07 0.01 47 1007.1
20260507231043 50 227 1.0 3.0 0.00 0.07 0.01 48 1007.1
20260507230559 50 224 0.0 6.0 0.00 0.07 0.01 47 1007.1
20260507230025 50 221 3.0 8.0 0.00 0.07 0.01 44 1007.0
20260507225539 50 318 2.0 8.0 0.00 0.08 0.01 44 1007.0
20260507225033 50 338 2.0 8.0 0.00 0.08 0.01 46 1007.0
20260507224538 50 297 1.0 6.0 0.00 0.08 0.01 45 1007.0
20260507224052 50 325 3.0 6.0 0.00 0.08 0.01 44 1007.0
20260507223543 51 301 1.0 5.0 0.00 0.08 0.01 45 1007.0
20260507223029 51 355 1.0 4.0 0.00 0.08 0.01 46 1006.9
20260507222543 51 288 2.0 9.0 0.00 0.08 0.01 44 1006.9
20260507222036 51 111 4.0 9.0 0.00 0.08 0.01 44 1006.9
20260507221544 51 252 1.0 6.0 0.00 0.08 0.01 46 1006.9
20260507221033 52 234 1.0 7.0 0.00 0.08 0.01 47 1006.8
20260507220528 52 234 2.0 7.0 0.00 0.08 0.01 46 1006.9
20260507215527 52 331 4.0 10.0 0.00 0.11 0.01 44 1006.8
20260507215042 52 225 4.0 10.0 0.00 0.11 0.01 44 1006.8
20260507214527 52 288 2.0 9.0 0.00 0.11 0.01 43 1006.7
20260507214041 52 227 3.0 9.0 0.00 0.11 0.01 44 1006.8
20260507213536 52 214 3.0 7.0 0.00 0.11 0.01 45 1006.8
20260507213038 52 227 1.0 7.0 0.00 0.11 0.01 46 1006.7
20260507212532 53 333 1.0 6.0 0.00 0.11 0.01 45 1006.7
20260507212046 54 303 2.0 6.0 0.00 0.11 0.01 45 1006.7
20260507211553 54 225 2.0 9.0 0.00 0.11 0.01 46 1006.7
20260507211027 53 344 4.0 9.0 0.00 0.11 0.01 44 1006.5
20260507210543 53 308 3.0 14.0 0.00 0.11 0.01 43 1006.6
20260507210025 54 196 3.0 11.0 0.00 0.11 0.01 42 1006.5
20260507205540 53 318 3.0 12.0 0.00 0.13 0.01 44 1006.5
20260507205027 54 355 3.0 7.0 0.00 0.13 0.01 44 1006.5
20260507204541 54 239 2.0 12.0 0.00 0.13 0.01 44 1006.6
20260507204027 54 340 4.0 12.0 0.00 0.13 0.01 44 1006.6
20260507203608 54 268 4.0 9.0 0.00 0.13 0.01 43 1006.5
20260507203032 54 220 3.0 13.0 0.00 0.13 0.01 43 1006.5
20260507202603 53 29 6.0 13.0 0.00 0.13 0.01 42 1006.6
20260507202056 53 360 4.0 11.0 0.00 0.13 0.01 42 1006.8
20260507201549 54 338 4.0 9.0 0.00 0.13 0.01 43 1006.8
20260507201035 54 313 2.0 7.0 0.00 0.13 0.01 45 1006.7
20260507200549 54 82 2.0 10.0 0.00 0.13 0.01 44 1006.7
20260507200043 54 232 3.0 10.0 0.00 0.13 0.01 43 1006.8
20260507195529 54 247 2.0 7.0 0.00 0.21 0.01 44 1007.0
20260507195044 54 230 2.0 14.0 0.00 0.21 0.01 43 1006.8
20260507194534 54 317 2.0 14.0 0.00 0.21 0.01 43 1006.9
20260507194041 53 351 2.0 7.0 0.00 0.21 0.01 46 1007.0
20260507193535 53 304 5.0 12.0 0.00 0.21 0.01 42 1007.0
20260507193049 55 309 3.0 10.0 0.00 0.21 0.01 43 1007.1
20260507192535 55 122 2.0 12.0 0.00 0.21 0.01 43 1007.1
20260507192030 54 342 3.0 12.0 0.00 0.21 0.01 41 1007.0
20260507191544 54 198 3.0 7.0 0.00 0.21 0.01 44 1007.1
20260507191029 54 355 1.0 7.0 0.00 0.21 0.01 45 1007.1
20260507190523 54 306 2.0 10.0 0.00 0.21 0.01 40 1007.2
20260507190024 54 300 5.0 10.0 0.00 0.21 0.01 40 1007.3
20260507185537 55 327 6.0 10.0 0.00 0.26 0.01 41 1007.2
20260507185052 55 217 4.0 13.0 0.00 0.26 0.01 43 1007.3
20260507184544 54 307 2.0 13.0 0.00 0.26 0.01 43 1007.4
20260507184029 53 5 1.0 8.0 0.00 0.26 0.01 47 1007.2
20260507183524 53 327 4.0 7.0 0.00 0.26 0.01 45 1007.5
20260507183030 53 31 3.0 6.0 0.00 0.26 0.01 45 1007.4
20260507182610 53 315 3.0 9.0 0.00 0.26 0.01 44 1007.5
20260507182056 53 315 3.0 9.0 0.00 0.26 0.01 45 1007.7
20260507181530 54 304 3.0 8.0 0.00 0.26 0.01 44 1007.7
20260507181044 54 211 1.0 8.0 0.00 0.26 0.01 48 1007.6
20260507180558 53 225 2.0 10.0 0.00 0.26 0.01 46 1007.9
20260507180023 52 197 2.0 9.0 0.00 0.26 0.01 48 1008.1
20260507175538 52 227 3.0 10.0 0.00 0.33 0.01 46 1008.1
20260507175023 53 334 4.0 10.0 0.00 0.33 0.01 46 1008.2
20260507174536 53 242 3.0 7.0 0.00 0.33 0.01 47 1008.0
20260507174032 53 312 2.0 8.0 0.00 0.33 0.01 46 1008.1
20260507173534 53 260 2.0 9.0 0.00 0.33 0.01 47 1008.0
20260507173029 53 325 2.0 8.0 0.00 0.33 0.01 46 1008.0
20260507172605 53 182 4.0 8.0 0.00 0.33 0.01 44 1008.0
20260507172028 53 289 3.0 7.0 0.00 0.33 0.01 48 1008.0
20260507171523 53 326 3.0 7.0 0.00 0.33 0.01 46 1008.0
20260507171029 53 258 2.0 6.0 0.00 0.33 0.01 44 1008.0
20260507170541 53 228 2.0 13.0 0.00 0.33 0.01 49 1008.0
20260507170035 52 338 3.0 13.0 0.00 0.33 0.01 50 1008.0
20260507165542 52 341 3.0 13.0 0.00 0.40 0.01 46 1008.0
20260507165035 52 221 4.0 9.0 0.00 0.40 0.01 45 1008.1
20260507164549 52 329 2.0 15.0 0.00 0.40 0.01 49 1008.1
20260507164055 53 355 4.0 9.0 0.00 0.40 0.01 46 1008.1
20260507163527 52 209 2.0 11.0 0.00 0.40 0.01 52 1008.0
20260507163042 52 222 3.0 11.0 0.00 0.40 0.01 49 1008.1
20260507162524 52 306 3.0 10.0 0.00 0.40 0.01 49 1008.3
20260507162059 51 229 3.0 9.0 0.00 0.40 0.01 48 1008.5
20260507161532 51 317 3.0 9.0 0.00 0.40 0.01 50 1008.7
20260507161107 51 136 3.0 10.0 0.00 0.40 0.01 51 1008.8
20260507160531 51 38 3.0 10.0 0.00 0.40 0.01 48 1008.9
20260507160040 51 243 3.0 13.0 0.00 0.40 0.01 49 1008.8
20260507155523 51 5 3.0 11.0 0.00 0.40 0.01 48 1009.0
20260507155036 51 212 3.0 7.0 0.00 0.40 0.01 51 1008.9
20260507154528 50 215 1.0 7.0 0.00 0.40 0.01 52 1009.0
20260507154104 50 199 2.0 7.0 0.00 0.40 0.01 49 1009.1
20260507153557 50 351 4.0 10.0 0.00 0.40 0.01 47 1009.0
20260507153039 50 319 4.0 10.0 0.00 0.40 0.01 49 1009.2
20260507152534 50 313 3.0 8.0 0.00 0.40 0.01 47 1009.1
20260507152039 50 195 3.0 7.0 0.00 0.40 0.01 49 1009.1
20260507151534 50 267 2.0 9.0 0.00 0.40 0.01 52 1009.2
20260507151049 50 326 4.0 16.0 0.00 0.40 0.01 47 1009.2
20260507150556 50 337 4.0 16.0 0.00 0.40 0.01 48 1009.2
20260507150051 50 301 1.0 11.0 0.00 0.40 0.01 51 1009.3
20260507145523 50 266 4.0 11.0 0.00 0.40 0.01 48 1009.2
20260507145028 50 301 2.0 5.0 0.00 0.40 0.01 51 1009.2
20260507144539 49 234 1.0 6.0 0.00 0.40 0.01 54 1009.1
20260507144031 49 225 3.0 8.0 0.00 0.40 0.01 50 1009.1
20260507143559 49 230 3.0 12.0 0.00 0.40 0.01 53 1009.1
20260507143025 48 332 3.0 12.0 0.00 0.40 0.01 54 1009.3
20260507142539 48 225 2.0 9.0 0.00 0.40 0.01 56 1009.2